TO-108
1 44881U 19093C   25145.80919050  .00000771  00000-0  95268-4 0  9995
2 44881  97.7926 221.7676 0012338 281.1989  78.7839 14.85569781293889
FloripaSat 1
1 44885U 19093G   25145.78962614  .00005143  00000-0  43685-3 0  9993
2 44885  97.8164 233.3599 0008745 247.3734 112.6564 14.98304424294531
RS-44
1 44909U 19096E   25145.54339385  .00000014  00000-0  16392-4 0  9998
2 44909  82.5223 237.2667 0216808 331.0081  27.9116 12.79740570252764
UPMSat 2
1 46276U 20061E   25145.23908002  .00052197  00000-0  49792-3 0  9993
2 46276  97.2455 219.1281 0001770 164.3773 195.7543 15.66622628263064
SALSAT
1 46495U 20068K   25145.36956344  .00005476  00000-0  23916-3 0  9997
2 46495  97.8589 122.6989 0010424 206.7868 153.2830 15.22525734256215
CubeSX-Sirius-HSE
1 47951U 21022V   25145.86517911  .00532417  11911-3  13219-2 0  9994
2 47951  97.4118  59.0208 0005058 134.8468 225.3219 15.95861773231512
CubeSX-HSE
1 47952U 21022W   25145.87556899  .00521926  11473-3  12770-2 0  9991
2 47952  97.4153  59.3044 0004727 145.4231 214.7353 15.96136002231535
GRBAlpha
1 47959U 21022AD  25145.81429613  .00441550  78766-4  12334-2 0  9994
2 47959  97.4142  59.2835 0004421 134.7377 225.4258 15.93643435230341
TUBIN
1 48900U 21059X   25145.77717064  .00039096  00000-0  49887-3 0  9990
2 48900  97.6738 313.8169 0002598 269.1241  90.9716 15.59191376217732
LEDSAT
1 49069U 21073D   25145.48626237  .00052138  00000-0  67484-3 0  9997
2 49069  97.3904 226.4160 0011471 136.0793 224.1377 15.58674661209080
CUTE
1 49263U 21088D   25145.47728919  .00011334  00000-0  23125-3 0  9995
2 49263  97.4520 221.3007 0006534 297.0615  62.9967 15.46351244202093
TeikyoSat 4
1 49396U 21102B   25145.35187833  .00001330  00000-0  91299-4 0  9993
2 49396  97.4110 184.3300 0012528 178.0846 182.0433 15.07572622194255
Z-Sat
1 49399U 21102E   25145.81740545  .00003386  00000-0  18785-3 0  9993
2 49399  97.3808 187.7838 0019118 150.8614 209.3689 15.14274280194744
KOSEN 1
1 49402U 21102H   25145.39973590  .00005915  00000-0  27611-3 0  9997
2 49402  97.3716 190.6798 0017495 129.2461 231.0330 15.20069529194987
HO-113
1 50466U 21131B   25145.83004575  .00000497  00000-0  16896-3 0  9991
2 50466  98.5095 235.2559 0004537 164.7593 195.3733 14.40795328179320
IRIS-A
1 51044U 22002BN  25145.67845948  .00553877  13922-3  10290-2 0  9997
2 51044  97.3153 226.0703 0008009 230.7613 129.2956 16.01044496187525
Foresail-1
1 52766U 22057AL  25145.84681499  .00231263  21394-4  82294-3 0  9996
2 52766  97.6037 296.1194 0005796 263.4667  96.5945 15.88903209167550
SNUGLITE 2
1 52899U 22065F   25145.85587515  .00000982  00000-0  20002-3 0  9995
2 52899  98.1668 287.9747 0008306 151.6659 208.4996 14.63175696154339
UmKA 1 (RS40S)
1 57172U 23091G   25145.81469448  .00004704  00000-0  25357-3 0  9998
2 57172  97.5592 201.2745 0015053  32.1695 328.0452 15.15185335105245
CubeBel-2 (EU11S)
1 57175U 23091K   25145.81649409  .00008694  00000-0  41758-3 0  9993
2 57175  97.5593 202.3341 0012958  41.5293 318.6924 15.19012669105312
VERONIKA
1 58261U 23174F   25145.78284576  .00112851  00000-0  10797-2 0  9997
2 58261  97.4136 231.1142 0004680 132.6967 227.4688 15.66325787 86360
ENSO
1 58470U 23185J   25145.83709762  .00044176  00000-0  67597-3 0  9991
2 58470  97.3751 220.5004 0008846 137.0551 223.1394 15.54207883 82747
EIRSAT-1
1 58472U 23185L   25145.81981455  .00081284  00000-0  84221-3 0  9996
2 58472  97.3711 222.1442 0006996 145.6290 214.5423 15.64404137 82859
SONATE-2
1 59112U 24043Q   25145.63668238  .00015039  00000-0  44045-3 0  9998
2 59112  97.5114 276.5222 0011983 162.8562 197.3088 15.35252174 68044
MO-122
1 60209U 24125G   25145.32841289  .00014622  00000-0  42267-3 0  9994
2 60209  97.2811 357.1234 0018966 187.2163 172.8811 15.35553155 49616
GRBBeta
1 60237U 24128C   25145.42975673  .00003781  00000-0  29141-3 0  9994
2 60237  61.9896 132.3751 0050828  54.0002 306.5785 15.02477075 47929
Curium One
1 60242U 24128H   25145.42424663  .00006660  00000-0  47032-3 0  9996
2 60242  61.9793 130.9044 0050758  49.7519 310.7996 15.04840498 47955
ROBUSTA-3A
1 60243U 24128J   25145.35576775  .00005098  00000-0  36867-3 0  9999
2 60243  61.9865 131.9212 0049429  47.4656 313.0593 15.04387119 47937
CatSat
1 60246U 24125J   25145.84740426  .00009298  00000-0  31307-3 0  9999
2 60246  97.2600 357.0160 0044004 145.0931 215.3210 15.30029992 47736
HYPERVIEW-1G (RS66S)
1 61772U 24199AP  25145.88001713  .00016444  00000-0  48699-3 0  9991
2 61772  97.3558  14.7745 0012107 240.4979 119.5057 15.34876677 74706
AO-123
1 61781U 24199AY  25145.84790493  .00005523  00000-0  20339-3 0  9994
2 61781  97.3570  13.7813 0014166 247.5462 112.4277 15.28159878 74635
ZIMSAT 2
1 61783U 24199BA  25145.91449331  .00029736  00000-0  75357-3 0  9998
2 61783  97.3538  15.3157 0012125 236.1103 123.8990 15.39594948 77891
HADES-R (SO-124)
1 62690U 25009CK  25145.16109332  .00027042  00000-0  98862-3 0  9992
2 62690  97.4105 226.0397 0004767 144.2133 215.9427 15.28041331 19796
HYDRA-T
1 62692U 25009CM  25145.47634921  .00027340  00000-0  99213-3 0  9997
2 62692  97.4101 226.3802 0004579 140.8532 219.3040 15.28284341 19849
JINJUSat 1B
1 63210U 25052A   25145.45896844  .00009117  00000-0  42257-3 0  9992
2 63210  97.4446  39.7762 0005308  38.3573 321.8038 15.20289509 10958
NUSHSAT 1
1 63211U 25052B   25145.58756630  .00011258  00000-0  51802-3 0  9990
2 63211  97.4433  39.9021 0005445  41.9245 318.2406 15.20480107 10971
TEVEL2-4
1 63213U 25052D   25144.67679146  .00009236  00000-0  42939-3 0  9991
2 63213  97.4351  38.9040 0005129  60.1094 300.0650 15.20180539 10837
TEVEL2-5
1 63214U 25052E   25145.26961879  .00009029  00000-0  41989-3 0  9999
2 63214  97.4351  39.4877 0005072  58.6769 301.4962 15.20175403 10925
TEVEL2-6
1 63215U 25052F   25145.66630222  .00010140  00000-0  47153-3 0  9994
2 63215  97.4350  39.8755 0005139  58.0352 302.1382 15.20145039 10982
TEVEL2-1
1 63217U 25052H   25145.60944806  .00009307  00000-0  43574-3 0  9992
2 63217  97.4329  39.7764 0005537  66.6901 293.4916 15.19933946 10970
TEVEL2-2
1 63218U 25052J   25145.47807482  .00009849  00000-0  46091-3 0  9994
2 63218  97.4328  39.6468 0005609  67.8523 292.3307 15.19930458 10958
TEVEL2-3
1 63219U 25052K   25145.54398201  .00009700  00000-0  45405-3 0  9991
2 63219  97.4328  39.7115 0005593  67.6819 292.5008 15.19927376 10963
TEVEL2-8
1 63237U 25052AD  25145.26819801  .00008735  00000-0  42323-3 0  9997
2 63237  97.4391  39.3743 0010231  73.0023 287.2332 15.18728991 10916
TEVEL2-9
1 63238U 25052AE  25145.20408277  .00008460  00000-0  41067-3 0  9992
2 63238  97.4397  39.3088 0010316  72.8509 287.3854 15.18674011 10907
TEVEL2-7
1 63239U 25052AF  25145.20568623  .00008575  00000-0  41660-3 0  9991
2 63239  97.4392  39.3056 0010321  73.3512 286.8854 15.18639709 10903
HYDRA-W
1 63490U 25052BL  25145.62958134  .00022191  00000-0  95897-3 0  9997
2 63490  97.4345  39.9162 0014449  69.6517 290.6271 15.22395994 10986
HADES-ICM
1 63492U 25052BN  25145.50910912  .00021849  00000-0  95503-3 0  9991
2 63492  97.4353  39.7754 0014622  73.0882 287.1956 15.22008605 10968
